Showing default

COSMOS 2329, 23791

Orbit data source: Space-Track

COSMOS 2329, 23791 is a payload satellite owned by VKS (CIS) in LEO that was launched on Mon, 19 Feb 1996 UTC via a TSIKLON-3 launch vehicle from the Plesetsk Missile And Space Complex (PKMTR). Payloads include a variety of satellites, spacecraft, and rockets equipped with specific instruments for various scientific and technological missions. These include communications satellites like Starlink; space stations such as the ISS; scientific satellites like the Hubble; Earth observation satellites from companies like Planet Labs, Umbra, and HawkEye 360; GPS; miniature CubeSats for education and research; and military/defense satellites.

Loading next visibility...
COSMOS 2329 details
Identifier
23791, 1996-009E
Orbit
LEO
Last TLE update10 hours ago
Origin
Flag of CISVKS (CIS)
ManufacturerNPO PM
MissionNon-operational Defense Communications
Bus & MotorSTRELA-3, Unknown motor
Mass225 kg wet, 225 kg dry
Launch date (UTC)
1996-02-19 (29 years ago)
Launch vehicle
TSIKLON-3
Launch site
Plesetsk Missile And Space Complex (PKMTR)
Object type
Payload
Rocket body
Debris
Shape & HBRCyl + 1 Ant, 7 m
Radar Cross Section1.583 m², Large (>1 m²)

Expand to show TLE details & history

TLE from 10 hours ago
0 COSMOS 2329
1 23791U 96009E   24361.39757566  .00000024  00000-0  76638-4 0  9990
2 23791  82.5728 308.8947 0008172 196.0466 285.4007 12.61685847328541
Epoch: 2024-12-26T09:32Z
Definitive object data (Epoch: 2024-12-26T09:32:30.537Z)
Latitude57.95294°
Longitude-121.56908°
Altitude1,424.017 km
Speed7.155 km/s
True Right ascension07h 47m 44s
True Declination57° 48' 41"
Sunlit
Object was in full shadow at TLE epoch
Visualization TLE readout
Latitude-2.37014°
Longitude-109.56384°
Altitude1,412.851 km
Speed7.157 km/s
Apparent Right ascension07h 53m 22s
Apparent Declination-19° 35' 37"
Sunlit
Object is in full shadow
Visualization observer readout
Local Sidereal Time18:45:24
Azimuth319.374° NNW
Elevation-64.987°
Doppler factor1
Orbital elements
Apogee altitude1,419.683 km
Perigee altitude1,406.948 km
Semi-major axis7,791.453 km
Eccentricity0.0008172
Inclination82.5728°
RAAN308.8947°
Arg. of periapsis196.0466°
True anomaly285.31039°
Mean anomaly285.4007°
Eccentric anomaly285.35555°
Mean motion3.15584 °/min
BSTAR0.000076638
Orbital period114.07 mins
Loading maneuver chart data...
Loading historical data...
Loading historical data...
Loading historical data...
Loading historical data...
Loading historical data...
Loading historical data...
Loading historical data...

COSMOS 2329 Visibility forecast

Observer location: undefined°, undefined

Span
Click to sort rows by Start time (UTC) header in descending order
Start Az.
Max El. time (UTC)
Max El. Az.
Max El.
End time (UTC)
End Az.
14 mins2024-12-26 20:24:45.414Z147.346° SSE2024-12-26 20:31:45.414Z87.301° E30.791°2024-12-26 20:38:45.414Z25.285° NE
14 mins2024-12-26 22:19:45.414Z216.229° SW2024-12-26 22:26:45.414Z286.058° WNW35.644°2024-12-26 22:33:45.414Z353.733° N
5 mins2024-12-27 06:29:45.414Z43.95° NE2024-12-27 06:31:45.414Z59.281° ENE13.461°2024-12-27 06:34:45.414Z81.951° E
15 mins2024-12-27 08:21:45.414Z357.399° N2024-12-27 08:28:45.414Z98.722° ESE43.884°2024-12-27 08:36:45.414Z166.712° S
9 mins2024-12-27 10:18:45.414Z312.765° NW2024-12-27 10:22:45.414Z278.351° WNW19.798°2024-12-27 10:27:45.414Z238.712° WSW
|